Hovedside
METAR-TAF:

METAR-TAF

Lufthavner :

Pajala lufthavn

Pajala, Sverige

breddegrad: 67-14-44N, lengdegrad: 023-04-08E, høyde over havet: 165 m

Gjeldene værobservasjon

Denne rapporten ble laget for 35 minutter siden, klokken 13:50 UTC
Vind 8 kt fra Sørøst, skiftende mellom Øst og Sør
Temperatur 31°C
Luftfuktighet 31%
Trykk 1018 hPa
Sikt 10 km eller mer

METAR: ESUP 181350Z AUTO 13008KT 080V170 9999 FEW075/// 31/12 Q1018

Tid: 16:25 (14:25 UTC)


TAF: fraværende

Værobservasjoner og værvarsel for over 4000 flyplasser (METAR- og TAF-rapporter).

Tilgjengelige stasjoner er representert av de røde og gule prikkene på kartet.

Hold musepekeren over prikken for å se navnet på stasjonen.

Klikk så for å se værobservasjoner og -varsler.

For å forandre kartet kan du klikke på den grønne knappen med svart kryss for å zoome inn, på den grønne knappen med strek for å zoome ut, eller på de grønne pilene for å se tilstøtende kart.


METAR-TAF: